TAM3486 SBSV-SBFZ

Flight info

Callsign TAM3486
Flight time N/A
Altitude 35000
Route FROTI UZ77 ILRIB DCT DOTKU
Aircraft A320/M-SDE3FGHIRWY/LB1

Departure

Time 2026-05-01 15:21
Airport Deputado Luiz Eduardo Magalhães International Airport (SBSV)

Arrival

Time N/A
Airport Pinto Martins International Airport (SBFZ)
Time Latitude Longitude Altitude Speed Heading
2026-05-01 15:00 -12.91476 -38.33337 44 ft 0 kts 354°
2026-05-01 15:04 -12.91477 -38.33337 44 ft 0 kts 354°
2026-05-01 15:14 -12.91495 -38.33335 43 ft 2 kts 352°
2026-05-01 15:14 -12.91511 -38.33333 43 ft 2 kts 353°
2026-05-01 15:14 -12.91543 -38.33334 40 ft 2 kts 59°
2026-05-01 15:15 -12.91553 -38.33365 44 ft 2 kts 79°
2026-05-01 15:15 -12.91556 -38.33383 44 ft 0 kts 80°
2026-05-01 15:16 -12.91555 -38.33377 44 ft 5 kts 80°
2026-05-01 15:17 -12.91533 -38.33260 44 ft 11 kts 78°
2026-05-01 15:18 -12.91358 -38.33155 44 ft 11 kts 347°
2026-05-01 15:18 -12.91284 -38.33170 44 ft 11 kts 349°
2026-05-01 15:19 -12.91196 -38.33381 43 ft 0 kts 297°
2026-05-01 15:19 -12.91153 -38.33443 43 ft 14 kts 330°
2026-05-01 15:19 -12.91087 -38.33397 43 ft 5 kts 78°
2026-05-01 15:20 -12.91060 -38.33267 42 ft 55 kts 78°
2026-05-01 15:20 -12.90936 -38.32646 52 ft 119 kts 78°
2026-05-01 15:20 -12.90735 -38.31643 138 ft 161 kts 79°
2026-05-01 15:21 -12.90519 -38.30524 840 ft 160 kts 83°
2026-05-01 15:21 -12.90289 -38.29394 1500 ft 171 kts 81°
2026-05-01 15:21 -12.90026 -38.28127 1928 ft 193 kts 75°
2026-05-01 15:21 -12.89150 -38.26983 2236 ft 225 kts 31°
2026-05-01 15:22 -12.85706 -38.26731 3349 ft 271 kts 354°
2026-05-01 15:22 -12.83799 -38.27051 4291 ft 277 kts 352°
2026-05-01 15:22 -12.81912 -38.27388 5203 ft 281 kts 353°
2026-05-01 15:23 -12.79954 -38.27701 5813 ft 288 kts 354°
2026-05-01 15:23 -12.77971 -38.27971 6007 ft 287 kts 355°
2026-05-01 15:23 -12.75990 -38.28203 6051 ft 286 kts 356°
2026-05-01 15:23 -12.74010 -38.28409 6060 ft 285 kts 356°
2026-05-01 15:24 -12.72036 -38.28604 6055 ft 285 kts 357°
2026-05-01 15:24 -12.70046 -38.28780 6239 ft 291 kts 358°
2026-05-01 15:24 -12.68027 -38.28908 7207 ft 290 kts 359°
2026-05-01 15:24 -12.66005 -38.29019 8170 ft 292 kts 360°
2026-05-01 15:25 -12.63954 -38.29127 9038 ft 297 kts 360°
2026-05-01 15:25 -12.61876 -38.29238 9905 ft 302 kts 360°
2026-05-01 15:25 -12.59737 -38.29355 10454 ft 317 kts 360°
2026-05-01 15:25 -12.57484 -38.29478 10814 ft 337 kts 360°
2026-05-01 15:26 -12.55116 -38.29610 11482 ft 343 kts 360°
2026-05-01 15:26 -12.52718 -38.29748 12245 ft 347 kts 360°
2026-05-01 15:26 -12.50302 -38.29893 13010 ft 349 kts
2026-05-01 15:26 -12.47866 -38.30041 13766 ft 352 kts
2026-05-01 15:27 -12.45410 -38.30190 14375 ft 355 kts
2026-05-01 15:27 -12.42932 -38.30339 14958 ft 359 kts
2026-05-01 15:27 -12.40429 -38.30487 15533 ft 362 kts
2026-05-01 15:28 -12.35350 -38.30765 16685 ft 369 kts
2026-05-01 15:28 -12.32776 -38.30870 17263 ft 372 kts
2026-05-01 15:28 -12.30174 -38.30963 17824 ft 376 kts
2026-05-01 15:29 -12.24893 -38.31149 18888 ft 383 kts
2026-05-01 15:29 -12.22223 -38.31247 19383 ft 386 kts
2026-05-01 15:29 -12.16848 -38.31449 20358 ft 392 kts
2026-05-01 15:30 -12.11357 -38.31665 21303 ft 398 kts
2026-05-01 15:31 -12.00123 -38.32108 23130 ft 410 kts
2026-05-01 15:31 -11.94380 -38.32328 23934 ft 416 kts
2026-05-01 15:32 -11.88565 -38.32551 24655 ft 421 kts
2026-05-01 15:32 -11.82674 -38.32781 25384 ft 426 kts
2026-05-01 15:33 -11.73712 -38.33132 26446 ft 433 kts
2026-05-01 15:34 -11.64636 -38.33485 27500 ft 440 kts 360°